Weather History for Waukesha, WI

Change the Weather History Date:

Friday, November 26, 2010

  Actual Average Record
Temperature  
Mean Temperature 20 °F -  
Max Temperature 28 °F 40 °F 64 °F (1984)
Min Temperature 12 °F 27 °F 0 °F (1977)
Degree Days  
Heating Degree Days 45    
Moisture  
Dew Point 9 °F    
Average Humidity 64    
Maximum Humidity 79    
Minimum Humidity 43    
Precipitation  
Precipitation 0.00 in - - ()
Sea Level Pressure  
Sea Level Pressure 29.79 in    
Wind  
Wind Speed 14 mph (WSW)    
Max Wind Speed 18 mph    
Max Gust Speed 29 mph    
Visibility 10 miles    
Events      
Averages and records for this station are not official NWS values.
T = Trace of Precipitation, MM = Missing Value Source: NWS Daily Summary

Daily Weather History Graph

Daily Weather History Graph

Search for Another Location

Airport:

Trip Planner

Search our weather history database for the weather conditions in past years. The results will help you decide how hot, cold, wet, or windy it might be!

Date:

Astronomy

Nov. 26, 2010 Rise Set
Actual Time 6:58 AM CST 4:21 PM CST
Civil Twilight 6:27 AM CST 4:52 PM CST
Nautical Twilight 5:52 AM CST 5:27 PM CST
Astronomical Twilight 5:18 AM CST 6:01 PM CST
Moon 9:32 PM CST (11/26) 11:03 AM CST (11/26)
Length of Visible Light 10h 25m
Length of Day
9h 22m
Waning Gibbous, 73% of the Moon is Illuminated
Nov 26
Waning Gibbous
Nov 28
Last Quarter
Dec 5
New
Dec 13
First Quarter
Dec 21
Full

Hourly Weather History & Observations

Time (CST) Temp. Windchill Dew Point Humidity Pressure Visibility Wind Dir Wind Speed Gust Speed Precip Events Conditions
12:14 AM 16.0 °F 1.1 °F 5.9 °F 65% 29.78 in 10.0 mi WSW 15.0 mph 23.0 mph N/A   Clear
12:34 AM 15.6 °F 1.8 °F 5.9 °F 66% 29.79 in 10.0 mi WSW 12.7 mph 17.3 mph N/A   Clear
12:54 AM 14.9 °F 0.9 °F 5.9 °F 68% 29.79 in 10.0 mi WSW 12.7 mph 17.3 mph N/A   Clear
1:14 AM 14.7 °F 2.1 °F 5.4 °F 66% 29.80 in 10.0 mi WSW 10.4 mph 16.1 mph N/A   Clear
1:34 AM 14.5 °F -0.2 °F 5.0 °F 66% 29.80 in 10.0 mi WSW 13.8 mph 21.9 mph N/A   Clear
1:54 AM 14.4 °F -2.5 °F 5.0 °F 66% 29.81 in 10.0 mi West 18.4 mph 21.9 mph N/A   Clear
2:14 AM 14.0 °F -0.2 °F 5.5 °F 69% 29.81 in 10.0 mi WSW 12.7 mph 21.9 mph N/A   Clear
2:34 AM 14.0 °F -0.8 °F 5.0 °F 67% 29.81 in 10.0 mi WSW 13.8 mph 21.9 mph N/A   Clear
2:54 AM 14.0 °F -2.0 °F 5.0 °F 67% 29.81 in 10.0 mi WSW 16.1 mph 21.9 mph N/A   Clear
3:14 AM 14.0 °F -0.8 °F 5.0 °F 67% 29.81 in 10.0 mi WSW 13.8 mph 20.7 mph N/A   Clear
3:34 AM 13.8 °F -1.7 °F 5.0 °F 68% 29.81 in 10.0 mi WSW 15.0 mph 21.9 mph N/A   Clear
3:54 AM 14.0 °F -1.4 °F 5.4 °F 69% 29.80 in 10.0 mi WSW 15.0 mph 23.0 mph N/A   Clear
4:14 AM 13.8 °F 0.2 °F 5.7 °F 70% 29.80 in 10.0 mi WSW 11.5 mph 20.7 mph N/A   Clear
4:34 AM 13.6 °F 1.6 °F 5.9 °F 71% 29.80 in 10.0 mi WSW 9.2 mph 20.7 mph N/A   Clear
4:54 AM 13.6 °F 0.7 °F 5.9 °F 71% 29.80 in 10.0 mi SW 10.4 mph - N/A   Clear
5:45 AM 12.2 °F -1.8 °F 6.8 °F 79% 29.80 in 10.0 mi WSW 11.5 mph 23.0 mph N/A   Clear
6:45 AM 12.2 °F -1.8 °F 6.8 °F 79% 29.80 in 10.0 mi WSW 11.5 mph 23.0 mph N/A   Clear
7:45 AM 15.8 °F 2.7 °F 6.8 °F 68% 29.80 in 10.0 mi WSW 11.5 mph 23.0 mph N/A   Clear
8:45 AM 17.6 °F 2.2 °F 6.8 °F 63% 29.79 in 10.0 mi WSW 17.3 mph 28.8 mph N/A   Clear
9:45 AM 19.4 °F 4.5 °F 8.6 °F 63% 29.80 in 10.0 mi SW 17.3 mph 28.8 mph N/A   Clear
10:45 AM 21.2 °F 6.4 °F 8.6 °F 58% 29.78 in 10.0 mi WSW 18.4 mph - N/A   Clear
11:45 AM 24.8 °F 11.1 °F 8.6 °F 50% 29.76 in 10.0 mi WSW 18.4 mph - N/A   Clear
12:45 PM 26.6 °F 13.8 °F 8.6 °F 47% 29.75 in 10.0 mi WSW 17.3 mph 28.8 mph N/A   Clear
1:45 PM 26.6 °F 13.8 °F 8.6 °F 47% 29.74 in 10.0 mi WSW 17.3 mph 28.8 mph N/A   Clear
2:45 PM 28.4 °F 18.5 °F 8.6 °F 43% 29.73 in 10.0 mi West 11.5 mph 23.0 mph N/A   Clear
3:45 PM 26.6 °F 13.8 °F 8.6 °F 47% 29.73 in 10.0 mi West 17.3 mph 28.8 mph N/A   Clear
4:45 PM 26.6 °F 16.2 °F 10.4 °F 51% 29.75 in 10.0 mi West 11.5 mph 23.0 mph N/A   Clear
5:45 PM 24.8 °F 14.0 °F 10.4 °F 54% 29.76 in 10.0 mi WSW 11.5 mph - N/A   Clear
6:45 PM 24.8 °F 11.5 °F 12.2 °F 59% 29.77 in 10.0 mi West 17.3 mph 28.8 mph N/A   Clear
7:45 PM 23.0 °F 11.7 °F 12.2 °F 63% 29.77 in 10.0 mi West 11.5 mph 23.0 mph N/A   Clear
8:14 PM 23.4 °F 10.6 °F 12.9 °F 64% 29.78 in 10.0 mi West 15.0 mph 18.4 mph N/A   Clear
8:34 PM 23.4 °F 11.1 °F 13.1 °F 65% 29.78 in 10.0 mi West 13.8 mph 21.9 mph N/A   Clear
8:45 PM 23.0 °F 11.7 °F 12.2 °F 63% 29.78 in 10.0 mi West 11.5 mph 23.0 mph N/A   Clear
8:54 PM 23.0 °F 10.1 °F 13.1 °F 66% 29.79 in 10.0 mi West 15.0 mph 23.0 mph N/A   Clear
9:14 PM 22.8 °F 10.4 °F 12.9 °F 66% 29.79 in 10.0 mi West 13.8 mph 20.7 mph N/A   Clear
9:34 PM 22.5 °F 10.5 °F 12.7 °F 66% 29.79 in 10.0 mi West 12.7 mph 18.4 mph N/A   Clear
9:54 PM 22.3 °F 9.7 °F 12.2 °F 65% 29.80 in 10.0 mi West 13.8 mph 17.3 mph N/A   Clear
10:14 PM 21.9 °F 10.4 °F 12.2 °F 66% 29.80 in 10.0 mi West 11.5 mph 19.6 mph N/A   Clear
10:34 PM 21.9 °F 9.2 °F 12.0 °F 66% 29.81 in 10.0 mi West 13.8 mph 20.7 mph N/A   Clear
10:54 PM 21.7 °F 8.5 °F 11.8 °F 66% 29.81 in 10.0 mi West 15.0 mph 21.9 mph N/A   Clear
11:14 PM 21.6 °F 9.3 °F 11.5 °F 65% 29.82 in 10.0 mi West 12.7 mph 23.0 mph N/A   Clear
11:34 PM 21.2 °F 6.4 °F 11.3 °F 66% 29.83 in 10.0 mi West 18.4 mph 23.0 mph N/A   Clear
11:54 PM 21.2 °F 7.3 °F 11.1 °F 65% 29.83 in 10.0 mi West 16.1 mph 20.7 mph N/A   Clear